Weather History for KBFD - November, 2012

Change the Weather History Date:

Thursday, November 8, 2012

  Actual Average Record
Temperature  
Mean Temperature 33 °F 40 °F  
Max Temperature 42 °F 49 °F 67 °F (2009)
Min Temperature 24 °F 31 °F 9 °F (1971)
Degree Days  
Heating Degree Days 32 21  
Month to date heating degree days 156  
Since 1 July heating degree days 1149  
Cooling Degree Days 0 0  
Month to date cooling degree days 0  
Year to date cooling degree days 193  
Moisture  
Dew Point 22 °F    
Average Humidity 71    
Maximum Humidity 85    
Minimum Humidity 40    
Precipitation  
Precipitation 0.00 in 0.12 in 0.77 in (1965)
Month to date precipitation 0.93  
Year to date precipitation 38.23  
Sea Level Pressure  
Sea Level Pressure 30.07 in    
Wind  
Wind Speed 9 mph (NNW)    
Max Wind Speed 14 mph    
Max Gust Speed 21 mph    
Visibility 10 miles    
Events      
T = Trace of Precipitation, MM = Missing Value Source: NWS Daily Summary

Daily Weather History Graph

Daily Weather History Graph

Search for Another Location

Airport or City:

Trip Planner

Search our weather history database for the weather conditions in past years. The results will help you decide how hot, cold, wet, or windy it might be!

Date:

Astronomy

Nov. 08, 2012 Rise Set
Actual Time 6:55 AM EST 5:00 PM EST
Civil Twilight 6:26 AM EST 5:29 PM EST
Nautical Twilight 5:53 AM EST 6:02 PM EST
Astronomical Twilight 5:20 AM EST 6:35 PM EST
Moon 12:44 AM EST (11/8) 1:44 PM EST (11/8)
Length of Visible Light 11h 03m
Length of Day
10h 04m
Waning Crescent, 33% of the Moon is Illuminated
Nov 8
Waning Crescent
Nov 13
New
Nov 20
First Quarter
Nov 28
Full
Dec 6
Last Quarter

Hourly Weather History & Observations

Time (EST) Temp. Windchill Dew Point Humidity Pressure Visibility Wind Dir Wind Speed Gust Speed Precip Events Conditions
12:19 AM 28.0 °F 20.0 °F 21.9 °F 78% 29.99 in 10.0 mi North 8.1 mph - N/A   Mostly Cloudy
12:53 AM 28.0 °F 20.8 °F 21.9 °F 78% 30.04 in 10.0 mi North 6.9 mph - N/A   Overcast
1:38 AM 27.0 °F 18.7 °F 21.0 °F 78% 29.98 in 10.0 mi North 8.1 mph - N/A   Scattered Clouds
1:53 AM 27.0 °F 18.0 °F 21.0 °F 78% 30.03 in 10.0 mi NNW 9.2 mph - N/A   Scattered Clouds
2:11 AM 26.1 °F 18.4 °F 21.0 °F 81% 29.98 in 10.0 mi North 6.9 mph - N/A   Mostly Cloudy
2:31 AM 27.0 °F 18.0 °F 21.0 °F 78% 29.98 in 10.0 mi North 9.2 mph - N/A   Scattered Clouds
2:53 AM 26.1 °F 16.2 °F 21.0 °F 81% 30.03 in 9.0 mi North 10.4 mph - N/A   Clear
3:53 AM 27.0 °F 16.1 °F 21.0 °F 78% 30.04 in 9.0 mi North 12.7 mph - N/A   Scattered Clouds
4:53 AM 25.0 °F 17.1 °F 19.9 °F 81% 30.05 in 9.0 mi North 6.9 mph - N/A   Clear
5:53 AM 25.0 °F 15.5 °F 21.0 °F 85% 30.06 in 8.0 mi North 9.2 mph - N/A   Partly Cloudy
6:53 AM 24.1 °F 16.0 °F 19.9 °F 84% 30.08 in 9.0 mi North 6.9 mph - N/A   Partly Cloudy
7:53 AM 26.1 °F 16.2 °F 21.0 °F 81% 30.10 in 10.0 mi North 10.4 mph - N/A   Scattered Clouds
8:11 AM 28.0 °F 17.0 °F 21.9 °F 78% 30.04 in 10.0 mi North 13.8 mph 19.6 mph N/A   Mostly Cloudy
8:53 AM 28.9 °F 18.2 °F 23.0 °F 78% 30.10 in 10.0 mi North 13.8 mph - N/A   Scattered Clouds
9:53 AM 32.0 °F 23.0 °F 21.0 °F 64% 30.12 in 10.0 mi North 11.5 mph - N/A   Clear
10:53 AM 36.0 °F 29.0 °F 21.9 °F 57% 30.12 in 10.0 mi NNW 9.2 mph - N/A   Clear
12:53 PM 39.9 °F 32.1 °F 21.0 °F 47% 30.07 in 10.0 mi WNW 13.8 mph - N/A   Clear
1:53 PM 39.9 °F 32.9 °F 19.9 °F 45% 30.07 in 10.0 mi WNW 11.5 mph - N/A   Clear
2:53 PM 42.1 °F 35.2 °F 19.0 °F 40% 30.07 in 10.0 mi NNW 12.7 mph 20.7 mph N/A   Clear
3:53 PM 39.9 °F 33.4 °F 21.0 °F 47% 30.07 in 10.0 mi WNW 10.4 mph - N/A   Clear
4:53 PM 37.0 °F 28.5 °F 19.9 °F 50% 30.09 in 10.0 mi NW 13.8 mph - N/A   Clear
5:53 PM 34.0 °F 25.5 °F 21.0 °F 59% 30.11 in 10.0 mi NW 11.5 mph - N/A   Clear
6:53 PM 32.0 °F 23.0 °F 21.0 °F 64% 30.14 in 10.0 mi NW 11.5 mph - N/A   Clear
7:53 PM 30.9 °F 22.8 °F 23.0 °F 72% 30.13 in 10.0 mi WNW 9.2 mph - N/A   Clear
8:53 PM 30.0 °F 22.4 °F 24.1 °F 79% 30.13 in 10.0 mi WNW 8.1 mph - N/A   Scattered Clouds
9:53 PM 30.0 °F 25.2 °F 24.1 °F 79% 30.12 in 10.0 mi West 4.6 mph - N/A   Partly Cloudy
10:50 PM 30.2 °F 24.3 °F 24.8 °F 80% 30.06 in 10.0 mi WNW 5.8 mph - N/A   Mostly Cloudy
10:53 PM 30.9 °F 24.3 °F 25.0 °F 79% 30.11 in 10.0 mi WNW 6.9 mph - N/A   Mostly Cloudy
11:53 PM 32.0 °F 24.8 °F 26.1 °F 79% 30.11 in 10.0 mi WNW 8.1 mph - N/A   Overcast